,

(GMT )
Munich

Weather History for EDDM - March, 2018

Change the Weather History Date:

Wednesday, March 14, 2018

  Actual Average Record
Temperature  
Mean Temperature 40 °F -  
Max Temperature 46 °F 48 °F 62 °F (2014)
Min Temperature 33 °F 31 °F 17 °F (2005)
Degree Days  
Heating Degree Days 26    
Moisture  
Dew Point 35 °F    
Average Humidity 83    
Maximum Humidity 93    
Minimum Humidity 66    
Precipitation  
Precipitation 0.00 in - - ()
Sea Level Pressure  
Sea Level Pressure 29.85 in    
Wind  
Wind Speed 7 mph ()    
Max Wind Speed 16 mph    
Max Gust Speed -    
Visibility 6.2 miles    
Events Rain    
Averages and records for this station are not official NWS values.
T = Trace of Precipitation, MM = Missing Value Source: Averaged Metar Reports

Daily Weather History Graph

Daily Weather History Graph

Search for Another Location

Airport or City:

Astronomy

Mar. 14, 2018 Rise Set
Actual Time 6:28 AM CET 6:16 PM CET
Civil Twilight 5:57 AM CET 6:47 PM CET
Nautical Twilight 5:21 AM CET 7:24 PM CET
Astronomical Twilight 4:44 AM CET 8:01 PM CET
Moon 5:12 AM CET (3/14) 3:02 PM CET (3/14)
Length of Visible Light 12h 49m
Length of Day
11h 47m
Waning Crescent, 9% of the Moon is Illuminated
Mar 14
Waning Crescent
Mar 17
New
Mar 24
First Quarter
Mar 31
Full
Apr 8
Last Quarter

Hourly Weather History & Observations

Time (CET) Temp. Windchill Dew Point Humidity Pressure Visibility Wind Dir Wind Speed Gust Speed Precip Events Conditions
12:20 AM 41.0 °F 32.8 °F 37.4 °F 87% 29.83 in 6.2 mi West 16.1 mph - N/A Rain Light Rain
12:50 AM 41.0 °F 34.3 °F 37.4 °F 87% 29.86 in 6.2 mi West 11.5 mph - N/A Rain Light Rain
1:20 AM 39.2 °F 33.0 °F 37.4 °F 93% 29.86 in 6.2 mi West 9.2 mph - N/A Rain Light Rain
1:50 AM 41.0 °F 34.7 °F 37.4 °F 87% 29.86 in 6.2 mi West 10.4 mph - N/A   Mostly Cloudy
2:20 AM 39.2 °F 32.5 °F 35.6 °F 87% 29.86 in 6.2 mi West 10.4 mph - N/A Rain Light Drizzle
2:50 AM 39.2 °F 32.5 °F 35.6 °F 87% 29.86 in 6.2 mi West 10.4 mph - N/A Rain Light Drizzle
3:20 AM 39.2 °F 33.0 °F 35.6 °F 87% 29.86 in 6.2 mi West 9.2 mph - N/A Rain Light Drizzle
3:50 AM 39.2 °F 33.0 °F 35.6 °F 87% 29.86 in 6.2 mi West 9.2 mph - N/A Rain Light Drizzle
4:20 AM 39.2 °F 33.6 °F 35.6 °F 87% 29.89 in 6.2 mi West 8.1 mph - N/A Rain Light Drizzle
4:50 AM 39.2 °F 33.0 °F 35.6 °F 87% 29.89 in 6.2 mi West 9.2 mph - N/A Rain Light Drizzle
5:20 AM 39.2 °F 34.2 °F 35.6 °F 87% 29.89 in 6.2 mi West 6.9 mph - N/A Rain Light Drizzle
5:50 AM 39.2 °F 34.2 °F 35.6 °F 87% 29.89 in 6.2 mi West 6.9 mph - N/A Rain Light Drizzle
6:20 AM 39.2 °F 34.2 °F 35.6 °F 87% 29.89 in 6.2 mi West 6.9 mph - N/A Rain Light Drizzle
6:50 AM 39.2 °F 35.9 °F 35.6 °F 87% 29.89 in 6.2 mi WSW 4.6 mph - N/A Rain Light Rain
7:20 AM 39.2 °F 35.0 °F 37.4 °F 93% 29.92 in 6.2 mi West 5.8 mph - N/A Rain Light Rain
7:50 AM 39.2 °F 34.2 °F 35.6 °F 87% 29.92 in 6.2 mi West 6.9 mph - N/A Rain Light Rain
8:20 AM 39.2 °F 34.2 °F 35.6 °F 87% 29.92 in 6.2 mi West 6.9 mph - N/A Rain Light Drizzle
8:50 AM 39.2 °F 35.9 °F 35.6 °F 87% 29.92 in 6.2 mi West 4.6 mph - N/A Rain Light Drizzle
9:20 AM 41.0 °F 37.1 °F 37.4 °F 87% 29.92 in 6.2 mi West 5.8 mph - N/A   Mostly Cloudy
9:50 AM 41.0 °F 36.4 °F 37.4 °F 87% 29.92 in 6.2 mi West 6.9 mph - N/A   Mostly Cloudy
10:20 AM 42.8 °F 40.1 °F 35.6 °F 76% 29.92 in 6.2 mi NNW 4.6 mph - N/A   Mostly Cloudy
10:50 AM 41.0 °F 36.4 °F 37.4 °F 87% 29.92 in 6.2 mi NW 6.9 mph - N/A   Mostly Cloudy
11:20 AM 41.0 °F 35.2 °F 37.4 °F 87% 29.92 in 6.2 mi NNW 9.2 mph - N/A   Mostly Cloudy
11:50 AM 42.8 °F 38.0 °F 35.6 °F 76% 29.92 in 6.2 mi NNW 8.1 mph - N/A   Mostly Cloudy
12:20 PM 42.8 °F 39.3 °F 35.6 °F 76% 29.92 in 6.2 mi NW 5.8 mph - N/A   Mostly Cloudy
12:50 PM 42.8 °F 40.1 °F 35.6 °F 76% 29.89 in 6.2 mi WNW 4.6 mph - N/A   Mostly Cloudy
1:20 PM 42.8 °F 40.1 °F 35.6 °F 76% 29.89 in 6.2 mi NNW 4.6 mph - N/A   Mostly Cloudy
1:50 PM 44.6 °F 42.2 °F 35.6 °F 71% 29.89 in 6.2 mi North 4.6 mph - N/A   Mostly Cloudy
2:20 PM 44.6 °F - 35.6 °F 71% 29.86 in 6.2 mi Variable 2.3 mph - N/A   Mostly Cloudy
2:50 PM 44.6 °F 43.1 °F 35.6 °F 71% 29.86 in 6.2 mi NNE 3.5 mph - N/A   Mostly Cloudy
3:20 PM 46.4 °F 43.5 °F 35.6 °F 66% 29.86 in 6.2 mi North 5.8 mph - N/A   Mostly Cloudy
3:50 PM 44.6 °F 42.2 °F 35.6 °F 71% 29.83 in 6.2 mi NNE 4.6 mph - N/A   Mostly Cloudy
4:20 PM 44.6 °F 42.2 °F 35.6 °F 71% 29.83 in 6.2 mi NNE 4.6 mph - N/A   Scattered Clouds
4:50 PM 44.6 °F 42.2 °F 35.6 °F 71% 29.83 in 6.2 mi NE 4.6 mph - N/A   Partly Cloudy
5:20 PM 44.6 °F 41.4 °F 35.6 °F 71% 29.80 in 6.2 mi ENE 5.8 mph - N/A   Partly Cloudy
5:50 PM 42.8 °F 40.1 °F 35.6 °F 76% 29.80 in 6.2 mi ENE 4.6 mph - N/A   Partly Cloudy
6:20 PM 42.8 °F 41.1 °F 33.8 °F 70% 29.80 in 6.2 mi NE 3.5 mph - N/A   Partly Cloudy
6:50 PM 41.0 °F - 33.8 °F 76% 29.80 in - ENE 2.3 mph - N/A   Clear
7:20 PM 39.2 °F 37.0 °F 33.8 °F 81% 29.80 in - NE 3.5 mph - N/A   Clear
7:50 PM 39.2 °F 37.0 °F 33.8 °F 81% 29.80 in - ENE 3.5 mph - N/A   Clear
8:20 PM 37.4 °F 33.8 °F 33.8 °F 87% 29.80 in 6.2 mi ENE 4.6 mph - N/A   Partly Cloudy
8:50 PM 37.4 °F 32.8 °F 33.8 °F 87% 29.77 in 6.2 mi ENE 5.8 mph - N/A   Partly Cloudy
9:20 PM 37.4 °F 34.9 °F 33.8 °F 87% 29.77 in 6.2 mi ENE 3.5 mph - N/A   Partly Cloudy
9:50 PM 37.4 °F 34.9 °F 33.8 °F 87% 29.77 in 6.2 mi ENE 3.5 mph - N/A   Partly Cloudy
10:20 PM 35.6 °F 32.8 °F 33.8 °F 93% 29.77 in 6.2 mi ENE 3.5 mph - N/A   Partly Cloudy
10:50 PM 35.6 °F 31.7 °F 33.8 °F 93% 29.77 in 6.2 mi ENE 4.6 mph - N/A   Partly Cloudy
11:20 PM 33.8 °F 28.6 °F 32.0 °F 93% 29.74 in 6.2 mi ENE 5.8 mph - N/A   Partly Cloudy
11:50 PM 33.8 °F 29.6 °F 32.0 °F 93% 29.74 in 5.6 mi ENE 4.6 mph - N/A   Partly Cloudy